TimeCDT,TemperatureF,Dew PointF,Humidity,Sea Level PressureIn,VisibilityMPH,Wind Direction,Wind SpeedMPH,Gust SpeedMPH,PrecipitationIn,Events,Conditions,WindDirDegrees,DateUTC
12:15 AM,50.0,32.0,50,30.19,10.0,SE,4.6,-,N/A,,Clear,130,2013-03-28 05:15:00
12:35 AM,48.2,30.2,50,30.19,10.0,Calm,Calm,-,N/A,,Clear,0,2013-03-28 05:35:00
12:55 AM,46.4,32.0,57,30.19,10.0,Calm,Calm,-,N/A,,Clear,0,2013-03-28 05:55:00
1:15 AM,44.6,32.0,61,30.19,10.0,Calm,Calm,-,N/A,,Scattered Clouds,0,2013-03-28 06:15:00
1:35 AM,44.6,32.0,61,30.19,10.0,Calm,Calm,-,N/A,,Mostly Cloudy,0,2013-03-28 06:35:00
1:55 AM,44.6,32.0,61,30.19,10.0,Calm,Calm,-,N/A,,Mostly Cloudy,0,2013-03-28 06:55:00
2:15 AM,44.6,32.0,61,30.19,10.0,Calm,Calm,-,N/A,,Mostly Cloudy,0,2013-03-28 07:15:00
2:35 AM,44.6,32.0,61,30.19,10.0,East,3.5,-,N/A,,Overcast,80,2013-03-28 07:35:00
2:55 AM,44.6,32.0,61,30.19,10.0,East,3.5,-,N/A,,Overcast,90,2013-03-28 07:55:00
3:15 AM,46.4,33.8,62,30.18,10.0,East,3.5,-,N/A,,Overcast,80,2013-03-28 08:15:00
3:35 AM,46.4,33.8,62,30.18,10.0,East,4.6,-,N/A,,Overcast,80,2013-03-28 08:35:00
3:55 AM,46.4,33.8,62,30.18,10.0,East,3.5,-,N/A,,Overcast,90,2013-03-28 08:55:00
4:15 AM,46.4,33.8,62,30.18,10.0,East,3.5,-,N/A,,Overcast,100,2013-03-28 09:15:00
4:35 AM,48.2,32.0,54,30.17,10.0,SE,4.6,-,N/A,,Overcast,130,2013-03-28 09:35:00
4:55 AM,46.4,32.0,57,30.18,10.0,Calm,Calm,-,N/A,,Mostly Cloudy,0,2013-03-28 09:55:00
5:15 AM,46.4,33.8,62,30.17,10.0,Calm,Calm,-,N/A,,Overcast,0,2013-03-28 10:15:00
5:35 AM,46.4,33.8,62,30.17,10.0,Calm,Calm,-,N/A,,Overcast,0,2013-03-28 10:35:00
5:55 AM,44.6,32.0,61,30.17,10.0,Calm,Calm,-,N/A,,Scattered Clouds,0,2013-03-28 10:55:00
6:15 AM,44.6,32.0,61,30.18,10.0,Calm,Calm,-,N/A,,Scattered Clouds,0,2013-03-28 11:15:00
6:35 AM,44.6,32.0,61,30.18,10.0,Calm,Calm,-,N/A,,Scattered Clouds,0,2013-03-28 11:35:00
6:55 AM,46.4,32.0,57,30.19,10.0,Calm,Calm,-,N/A,,Scattered Clouds,0,2013-03-28 11:55:00
7:15 AM,46.4,32.0,57,30.19,10.0,Calm,Calm,-,N/A,,Scattered Clouds,0,2013-03-28 12:15:00
7:35 AM,46.4,32.0,57,30.20,10.0,Calm,Calm,-,N/A,,Scattered Clouds,0,2013-03-28 12:35:00
7:55 AM,46.4,32.0,57,30.20,10.0,Calm,Calm,-,N/A,,Clear,0,2013-03-28 12:55:00
8:15 AM,50.0,32.0,50,30.20,10.0,Calm,Calm,-,N/A,,Clear,0,2013-03-28 13:15:00
8:35 AM,51.8,32.0,47,30.21,10.0,Calm,Calm,-,N/A,,Clear,0,2013-03-28 13:35:00
8:55 AM,53.6,33.8,47,30.21,10.0,South,8.1,-,N/A,,Scattered Clouds,170,2013-03-28 13:55:00
9:15 AM,55.4,33.8,44,30.21,10.0,South,5.8,-,N/A,,Scattered Clouds,170,2013-03-28 14:15:00
9:35 AM,57.2,35.6,44,30.21,10.0,South,9.2,-,N/A,,Clear,180,2013-03-28 14:35:00
9:55 AM,59.0,37.4,45,30.21,10.0,South,10.4,-,N/A,,Clear,190,2013-03-28 14:55:00
10:15 AM,60.8,39.2,45,30.21,10.0,SSW,11.5,16.1,N/A,,Clear,200,2013-03-28 15:15:00
10:35 AM,62.6,41.0,45,30.21,10.0,SSW,12.7,-,N/A,,Clear,200,2013-03-28 15:35:00
10:55 AM,62.6,42.8,48,30.22,10.0,SSW,12.7,-,N/A,,Clear,210,2013-03-28 15:55:00
11:15 AM,62.6,42.8,48,30.21,10.0,South,11.5,-,N/A,,Clear,190,2013-03-28 16:15:00
11:35 AM,64.4,42.8,45,30.21,10.0,SSW,15.0,-,N/A,,Clear,200,2013-03-28 16:35:00
11:55 AM,66.2,44.6,46,30.21,10.0,SSW,10.4,-,N/A,,Clear,200,2013-03-28 16:55:00
12:15 PM,66.2,44.6,46,30.21,10.0,South,11.5,-,N/A,,Clear,190,2013-03-28 17:15:00
12:35 PM,68.0,44.6,43,30.20,10.0,South,13.8,-,N/A,,Clear,190,2013-03-28 17:35:00
12:55 PM,68.0,44.6,43,30.19,10.0,SW,9.2,18.4,N/A,,Clear,220,2013-03-28 17:55:00
1:15 PM,69.8,46.4,43,30.19,10.0,SW,12.7,20.7,N/A,,Clear,220,2013-03-28 18:15:00
1:35 PM,69.8,46.4,43,30.18,10.0,SSW,11.5,16.1,N/A,,Clear,210,2013-03-28 18:35:00
1:55 PM,69.8,46.4,43,30.17,10.0,SSW,11.5,-,N/A,,Clear,200,2013-03-28 18:55:00
2:15 PM,68.0,46.4,46,30.16,10.0,SSW,6.9,-,N/A,,Scattered Clouds,200,2013-03-28 19:15:00
2:35 PM,71.6,46.4,41,30.15,10.0,SSW,9.2,16.1,N/A,,Scattered Clouds,210,2013-03-28 19:35:00
2:55 PM,71.6,46.4,41,30.14,10.0,SSW,10.4,16.1,N/A,,Scattered Clouds,200,2013-03-28 19:55:00
3:15 PM,71.6,46.4,41,30.13,10.0,SW,8.1,19.6,N/A,,Scattered Clouds,220,2013-03-28 20:15:00
3:35 PM,73.4,46.4,38,30.13,10.0,South,12.7,17.3,N/A,,Scattered Clouds,190,2013-03-28 20:35:00
3:55 PM,71.6,46.4,41,30.13,10.0,SSW,15.0,20.7,N/A,,Scattered Clouds,200,2013-03-28 20:55:00
4:15 PM,69.8,46.4,43,30.13,10.0,SSW,12.7,-,N/A,,Scattered Clouds,200,2013-03-28 21:15:00
4:35 PM,68.0,46.4,46,30.12,10.0,South,8.1,-,N/A,,Scattered Clouds,180,2013-03-28 21:35:00
4:55 PM,71.6,46.4,41,30.12,10.0,South,8.1,-,N/A,,Scattered Clouds,180,2013-03-28 21:55:00
5:15 PM,71.6,46.4,41,30.11,10.0,South,8.1,-,N/A,,Clear,180,2013-03-28 22:15:00
5:35 PM,69.8,46.4,43,30.11,10.0,South,9.2,-,N/A,,Clear,180,2013-03-28 22:35:00
5:55 PM,69.8,46.4,43,30.11,10.0,SSW,9.2,-,N/A,,Clear,210,2013-03-28 22:55:00
6:15 PM,69.8,46.4,43,30.11,10.0,SE,5.8,-,N/A,,Clear,140,2013-03-28 23:15:00
6:35 PM,68.0,46.4,46,30.11,10.0,SE,8.1,-,N/A,,Clear,130,2013-03-28 23:35:00
6:55 PM,66.2,48.2,52,30.11,10.0,SE,8.1,-,N/A,,Clear,140,2013-03-28 23:55:00
7:15 PM,64.4,48.2,56,30.11,10.0,SE,5.8,-,N/A,,Clear,130,2013-03-29 00:15:00
7:35 PM,64.4,50.0,59,30.11,10.0,SE,6.9,-,N/A,,Clear,130,2013-03-29 00:35:00
7:55 PM,62.6,50.0,63,30.11,10.0,SE,4.6,-,N/A,,Clear,140,2013-03-29 00:55:00
8:15 PM,62.6,50.0,63,30.13,10.0,Calm,Calm,-,N/A,,Scattered Clouds,0,2013-03-29 01:15:00
8:35 PM,60.8,50.0,68,30.13,10.0,Calm,Calm,-,N/A,,Scattered Clouds,0,2013-03-29 01:35:00
8:55 PM,59.0,50.0,72,30.14,10.0,Calm,Calm,-,N/A,,Scattered Clouds,0,2013-03-29 01:55:00
9:15 PM,59.0,50.0,72,30.15,10.0,Calm,Calm,-,N/A,,Mostly Cloudy,0,2013-03-29 02:15:00
9:35 PM,59.0,50.0,72,30.15,10.0,SE,3.5,-,N/A,,Overcast,140,2013-03-29 02:35:00
9:55 PM,59.0,50.0,72,30.16,10.0,ESE,3.5,-,N/A,,Overcast,120,2013-03-29 02:55:00
10:15 PM,57.2,48.2,72,30.16,10.0,SE,3.5,-,N/A,,Mostly Cloudy,130,2013-03-29 03:15:00
10:35 PM,59.0,50.0,72,30.16,10.0,SE,3.5,-,N/A,,Mostly Cloudy,130,2013-03-29 03:35:00
10:55 PM,59.0,48.2,67,30.16,10.0,SE,3.5,-,N/A,,Mostly Cloudy,140,2013-03-29 03:55:00
11:15 PM,59.0,48.2,67,30.16,10.0,SE,3.5,-,N/A,,Overcast,130,2013-03-29 04:15:00
11:35 PM,55.4,48.2,77,30.15,10.0,Calm,Calm,-,N/A,,Overcast,0,2013-03-29 04:35:00
11:55 PM,57.2,48.2,72,30.15,10.0,SE,4.6,-,N/A,,Overcast,130,2013-03-29 04:55:00